USA 176 (DSP 22)

Last updated on July 6, 2021, 3:28 p.m. UTC

1 28158U 04004A   21187.07402531 -.00000215  00000-0  00000+0 0  9991
2 28158   9.6467  37.1615 0001267 116.0334 245.0407  1.00269803 13493
UTC
Height (km)
Latitude
Longitude
Inclination
Orbital Period
UTC large
Height (km)
Speed (km/s)
/
Latitude / Longitude
Inclination (degrees)
Orbital Period (minutes)
Azimuth
Elevation
Range (km)
Doppler Factor
iOS Compass Heading
iOS Angle

Next 30 passes for location: Hong Kong

Rise time Rise Azimuth (degrees) Set time Set Azimuth (degrees) Duration Max altitude (degrees)

No matching passes for this satellites